AIC4EM VIDP-VECC

Flight info

Callsign AIC4EM
Flight time 1h 52m
Altitude 39000
Route ALI G452 LKN W45 PPT W52 SEGMO SEGMO2A
Aircraft B789/H-SDE1E2E3FGHIJ2J3J4J5M1RWXY/LB1D1

Departure

Time 2026-04-21 13:31
Airport Indira Gandhi International Airport (VIDP)

Arrival

Time 2026-04-21 15:23
Airport Netaji Subhash Chandra Bose International Airport (VECC)
Time Latitude Longitude Altitude Speed Heading
2026-04-21 13:08 28.56116 77.08266 779 ft 0 kts 238°
2026-04-21 13:19 28.56122 77.08280 779 ft 4 kts 231°
2026-04-21 13:19 28.56136 77.08298 779 ft 4 kts 240°
2026-04-21 13:19 28.56141 77.08323 779 ft 4 kts 299°
2026-04-21 13:19 28.56124 77.08338 779 ft 4 kts 359°
2026-04-21 13:20 28.56120 77.08339 779 ft 0 kts
2026-04-21 13:21 28.56121 77.08339 779 ft 1 kts
2026-04-21 13:21 28.56134 77.08340 779 ft 3 kts
2026-04-21 13:21 28.56169 77.08334 779 ft 7 kts 341°
2026-04-21 13:22 28.56224 77.08301 779 ft 11 kts 330°
2026-04-21 13:22 28.56299 77.08246 779 ft 14 kts 314°
2026-04-21 13:22 28.56334 77.08147 779 ft 14 kts 285°
2026-04-21 13:22 28.56358 77.08037 779 ft 15 kts 278°
2026-04-21 13:23 28.56317 77.07968 779 ft 11 kts 192°
2026-04-21 13:23 28.56209 77.07941 779 ft 21 kts 195°
2026-04-21 13:23 28.56038 77.07891 779 ft 30 kts 194°
2026-04-21 13:23 28.55828 77.07827 779 ft 31 kts 195°
2026-04-21 13:24 28.55616 77.07762 779 ft 31 kts 194°
2026-04-21 13:24 28.55404 77.07700 779 ft 31 kts 193°
2026-04-21 13:24 28.55191 77.07646 779 ft 31 kts 195°
2026-04-21 13:24 28.55055 77.07630 779 ft 10 kts 139°
2026-04-21 13:25 28.55041 77.07703 779 ft 14 kts 93°
2026-04-21 13:25 28.55019 77.07852 779 ft 24 kts 103°
2026-04-21 13:25 28.54965 77.08074 779 ft 34 kts 105°
2026-04-21 13:25 28.54901 77.08357 779 ft 38 kts 104°
2026-04-21 13:26 28.54834 77.08647 779 ft 38 kts 104°
2026-04-21 13:26 28.54767 77.08939 779 ft 38 kts 104°
2026-04-21 13:26 28.54700 77.09229 779 ft 38 kts 104°
2026-04-21 13:26 28.54632 77.09520 779 ft 38 kts 104°
2026-04-21 13:27 28.54565 77.09810 779 ft 38 kts 104°
2026-04-21 13:27 28.54498 77.10100 779 ft 38 kts 104°
2026-04-21 13:27 28.54432 77.10389 779 ft 38 kts 104°
2026-04-21 13:27 28.54373 77.10562 779 ft 11 kts 154°
2026-04-21 13:28 28.54299 77.10557 779 ft 11 kts 193°
2026-04-21 13:28 28.54218 77.10535 779 ft 13 kts 193°
2026-04-21 13:28 28.54126 77.10510 779 ft 14 kts 193°
2026-04-21 13:28 28.54050 77.10509 779 ft 6 kts 137°
2026-04-21 13:29 28.54031 77.10570 779 ft 12 kts 104°
2026-04-21 13:29 28.54007 77.10686 779 ft 18 kts 103°
2026-04-21 13:29 28.53976 77.10839 779 ft 21 kts 103°
2026-04-21 13:29 28.53928 77.10963 779 ft 14 kts 147°
2026-04-21 13:30 28.53840 77.10956 779 ft 14 kts 198°
2026-04-21 13:30 28.53782 77.10891 779 ft 10 kts 269°
2026-04-21 13:30 28.53802 77.10805 779 ft 19 kts 284°
2026-04-21 13:30 28.53897 77.10369 779 ft 97 kts 283°
2026-04-21 13:31 28.54106 77.09389 778 ft 155 kts 284°
2026-04-21 13:31 28.54386 77.08068 1173 ft 170 kts 279°
2026-04-21 13:31 28.54620 77.06881 2209 ft 144 kts 287°
2026-04-21 13:31 28.54852 77.05696 2524 ft 165 kts 284°
2026-04-21 13:32 28.55017 77.04325 2796 ft 187 kts 275°
2026-04-21 13:32 28.54433 77.02875 2899 ft 225 kts 232°
2026-04-21 13:32 28.53017 77.01954 3132 ft 251 kts 206°
2026-04-21 13:32 28.51287 77.01297 3468 ft 273 kts 196°
2026-04-21 13:33 28.49351 77.01542 3967 ft 291 kts 159°
2026-04-21 13:33 28.47771 77.02958 4717 ft 294 kts 128°
2026-04-21 13:33 28.46758 77.04972 5563 ft 293 kts 115°
2026-04-21 13:33 28.45843 77.07057 6326 ft 297 kts 117°
2026-04-21 13:34 28.44771 77.09088 7071 ft 300 kts 123°
2026-04-21 13:34 28.43591 77.11059 7775 ft 304 kts 125°
2026-04-21 13:34 28.42421 77.13075 8528 ft 307 kts 123°
2026-04-21 13:34 28.41284 77.15135 9264 ft 309 kts 123°
2026-04-21 13:35 28.40134 77.17215 9982 ft 312 kts 123°
2026-04-21 13:35 28.38948 77.19320 10481 ft 324 kts 123°
2026-04-21 13:35 28.37699 77.21525 10844 ft 340 kts 123°
2026-04-21 13:35 28.36396 77.23840 11193 ft 355 kts 123°
2026-04-21 13:36 28.35060 77.26227 11511 ft 370 kts 123°
2026-04-21 13:36 28.33647 77.28744 11886 ft 383 kts 124°
2026-04-21 13:36 28.32197 77.31304 12484 ft 388 kts 123°
2026-04-21 13:36 28.30734 77.33893 13126 ft 392 kts 123°
2026-04-21 13:37 28.29261 77.36509 13739 ft 395 kts 123°
2026-04-21 13:37 28.27769 77.39156 14303 ft 399 kts 123°
2026-04-21 13:37 28.26267 77.41815 14859 ft 402 kts 123°
2026-04-21 13:37 28.24752 77.44493 15433 ft 405 kts 123°
2026-04-21 13:38 28.23226 77.47191 15981 ft 408 kts 123°
2026-04-21 13:38 28.21686 77.49914 16520 ft 411 kts 123°
2026-04-21 13:38 28.20136 77.52651 17044 ft 414 kts 122°
2026-04-21 13:38 28.18572 77.55410 17569 ft 417 kts 122°
2026-04-21 13:39 28.16996 77.58190 18079 ft 420 kts 122°
2026-04-21 13:39 28.15405 77.60994 18527 ft 423 kts 122°
2026-04-21 13:39 28.13810 77.63804 18962 ft 426 kts 122°
2026-04-21 13:39 28.12223 77.66596 19403 ft 428 kts 122°
2026-04-21 13:40 28.10585 77.69477 19829 ft 431 kts 122°
2026-04-21 13:40 28.08978 77.72303 20237 ft 433 kts 122°
2026-04-21 13:40 28.07340 77.75180 20648 ft 436 kts 122°
2026-04-21 13:40 28.05690 77.78077 21060 ft 438 kts 122°
2026-04-21 13:41 28.04033 77.80984 21471 ft 441 kts 122°
2026-04-21 13:41 28.02362 77.83913 21861 ft 443 kts 121°
2026-04-21 13:41 28.00684 77.86854 22260 ft 445 kts 121°
2026-04-21 13:41 27.98998 77.89804 22640 ft 448 kts 121°
2026-04-21 13:42 27.97301 77.92774 23015 ft 450 kts 121°
2026-04-21 13:42 27.95594 77.95757 23384 ft 452 kts 121°
2026-04-21 13:42 27.93885 77.98747 23696 ft 454 kts 122°
2026-04-21 13:42 27.92165 78.01753 23994 ft 456 kts 122°
2026-04-21 13:43 27.90451 78.04739 24264 ft 459 kts 122°
2026-04-21 13:43 27.88709 78.07771 24546 ft 461 kts 122°
2026-04-21 13:43 27.86956 78.10825 24818 ft 464 kts 122°
2026-04-21 13:43 27.85198 78.13890 25084 ft 466 kts 121°
2026-04-21 13:44 27.83434 78.16971 25350 ft 468 kts 121°
2026-04-21 13:44 27.81968 78.20256 25545 ft 469 kts 111°
2026-04-21 13:44 27.80718 78.23660 25831 ft 470 kts 110°
2026-04-21 13:44 27.79488 78.27088 26087 ft 472 kts 110°
2026-04-21 13:45 27.78201 78.30516 26347 ft 475 kts 111°
2026-04-21 13:45 27.76880 78.33949 26614 ft 477 kts 111°
2026-04-21 13:45 27.75574 78.37407 26880 ft 479 kts 110°
2026-04-21 13:45 27.74285 78.40884 27148 ft 482 kts 110°
2026-04-21 13:46 27.72975 78.44386 27418 ft 484 kts 110°
2026-04-21 13:46 27.71648 78.47886 27696 ft 486 kts 110°
2026-04-21 13:46 27.70315 78.51403 27971 ft 489 kts 110°
2026-04-21 13:46 27.68981 78.54946 28246 ft 491 kts 110°
2026-04-21 13:47 27.67644 78.58500 28518 ft 494 kts 110°
2026-04-21 13:47 27.66294 78.62068 28799 ft 496 kts 110°
2026-04-21 13:47 27.64933 78.65655 29079 ft 499 kts 110°
2026-04-21 13:47 27.63569 78.69258 29380 ft 501 kts 110°
2026-04-21 13:48 27.62200 78.72876 29677 ft 503 kts 111°
2026-04-21 13:48 27.60837 78.76465 29927 ft 505 kts 111°
2026-04-21 13:48 27.59450 78.80112 30166 ft 508 kts 111°
2026-04-21 13:48 27.58057 78.83775 30415 ft 510 kts 111°
2026-04-21 13:49 27.56657 78.87459 30671 ft 512 kts 111°
2026-04-21 13:49 27.55251 78.91150 30925 ft 514 kts 111°
2026-04-21 13:49 27.53837 78.94855 31183 ft 516 kts 111°
2026-04-21 13:49 27.52417 78.98575 31439 ft 518 kts 111°
2026-04-21 13:50 27.50988 79.02316 31688 ft 520 kts 111°
2026-04-21 13:50 27.49556 79.06062 31969 ft 523 kts 111°
2026-04-21 13:50 27.48114 79.09839 32249 ft 524 kts 112°
2026-04-21 13:50 27.46667 79.13612 32522 ft 526 kts 112°
2026-04-21 13:51 27.45208 79.17405 32814 ft 528 kts 112°
2026-04-21 13:51 27.43749 79.21205 33177 ft 528 kts 112°
2026-04-21 13:51 27.42786 79.23717 33428 ft 528 kts 112°
2026-04-21 13:51 27.41330 79.27508 33794 ft 527 kts 112°
2026-04-21 13:52 27.39873 79.31293 34116 ft 527 kts 112°
2026-04-21 13:52 27.38413 79.35079 34462 ft 526 kts 112°
2026-04-21 13:52 27.36958 79.38853 34809 ft 526 kts 112°
2026-04-21 13:52 27.35500 79.42632 35149 ft 525 kts 112°
2026-04-21 13:53 27.34048 79.46396 35515 ft 523 kts 113°
2026-04-21 13:53 27.32598 79.50141 35874 ft 522 kts 113°
2026-04-21 13:53 27.31108 79.53854 36224 ft 521 kts 114°
2026-04-21 13:53 27.29591 79.57552 36551 ft 520 kts 114°
2026-04-21 13:54 27.28103 79.61249 36891 ft 519 kts 114°
2026-04-21 13:54 27.26656 79.64905 37222 ft 518 kts 114°
2026-04-21 13:54 27.25184 79.68591 37557 ft 517 kts 114°
2026-04-21 13:54 27.23697 79.72261 37877 ft 516 kts 114°
2026-04-21 13:55 27.22211 79.75932 38197 ft 515 kts 114°
2026-04-21 13:55 27.20738 79.79601 38484 ft 514 kts 114°
2026-04-21 13:55 27.19265 79.83272 38648 ft 516 kts 115°
2026-04-21 13:55 27.17781 79.86945 38713 ft 516 kts 115°
2026-04-21 13:56 27.14827 79.94237 38706 ft 510 kts 115°
2026-04-21 13:56 27.11898 80.01483 38706 ft 509 kts 115°
2026-04-21 13:57 27.08964 80.08712 38706 ft 509 kts 115°
2026-04-21 13:57 27.06023 80.15948 38703 ft 510 kts 115°
2026-04-21 13:58 27.03071 80.23202 38706 ft 512 kts 116°
2026-04-21 13:58 27.00108 80.30465 38709 ft 512 kts 116°
2026-04-21 13:59 26.97144 80.37723 38702 ft 511 kts 116°
2026-04-21 13:59 26.94178 80.44968 38705 ft 511 kts 116°
2026-04-21 14:00 26.91233 80.52153 38702 ft 510 kts 116°
2026-04-21 14:00 26.88263 80.59383 38706 ft 513 kts 117°
2026-04-21 14:01 26.85270 80.66659 38707 ft 514 kts 117°
2026-04-21 14:01 26.82256 80.73975 38706 ft 518 kts 117°
2026-04-21 14:02 26.79236 80.81287 38703 ft 517 kts 118°
2026-04-21 14:03 26.75044 80.92391 38706 ft 519 kts 109°
2026-04-21 14:03 26.73067 81.00209 38705 ft 525 kts 109°
2026-04-21 14:04 26.70970 81.08027 38714 ft 523 kts 110°
2026-04-21 14:04 26.68926 81.15838 38712 ft 523 kts 109°
2026-04-21 14:05 26.66867 81.23617 38692 ft 522 kts 110°
2026-04-21 14:05 26.64817 81.31344 38705 ft 523 kts 110°
2026-04-21 14:06 26.62740 81.39176 38704 ft 527 kts 110°
2026-04-21 14:06 26.60648 81.47029 38698 ft 527 kts 111°
2026-04-21 14:07 26.58539 81.54928 38700 ft 532 kts 111°
2026-04-21 14:07 26.56420 81.62851 38699 ft 531 kts 111°
2026-04-21 14:08 26.54299 81.70758 38696 ft 535 kts 112°
2026-04-21 14:08 26.52145 81.78767 38701 ft 539 kts 112°
2026-04-21 14:09 26.49992 81.86768 38696 ft 537 kts 112°
2026-04-21 14:09 26.47849 81.94687 38691 ft 535 kts 112°
2026-04-21 14:10 26.45700 82.02630 38684 ft 535 kts 112°
2026-04-21 14:10 26.43536 82.10597 38685 ft 536 kts 112°
2026-04-21 14:11 26.41369 82.18563 38689 ft 537 kts 112°
2026-04-21 14:11 26.39188 82.26555 38692 ft 538 kts 112°
2026-04-21 14:12 26.37005 82.34541 38699 ft 538 kts 112°
2026-04-21 14:12 26.34821 82.42535 38685 ft 540 kts 114°
2026-04-21 14:13 26.32589 82.50610 38693 ft 548 kts 114°
2026-04-21 14:13 26.30370 82.58706 38689 ft 545 kts 114°
2026-04-21 14:14 26.28137 82.66768 38685 ft 544 kts 114°
2026-04-21 14:14 26.25910 82.74826 38679 ft 544 kts 114°
2026-04-21 14:15 26.23676 82.82873 38684 ft 546 kts 115°
2026-04-21 14:15 26.21414 82.91003 38685 ft 550 kts 115°
2026-04-21 14:16 26.19163 82.99092 38687 ft 549 kts 115°
2026-04-21 14:16 26.16894 83.07198 38682 ft 548 kts 115°
2026-04-21 14:17 26.14632 83.15302 38679 ft 547 kts 115°
2026-04-21 14:17 26.12392 83.23426 38675 ft 552 kts 115°
2026-04-21 14:18 26.10117 83.31600 38657 ft 552 kts 115°
2026-04-21 14:18 26.07859 83.39722 38677 ft 553 kts 115°
2026-04-21 14:19 26.05577 83.47893 38683 ft 553 kts 115°
2026-04-21 14:19 26.03295 83.56060 38670 ft 552 kts 116°
2026-04-21 14:20 26.00994 83.64220 38666 ft 553 kts 116°
2026-04-21 14:20 25.98678 83.72381 38666 ft 554 kts 116°
2026-04-21 14:21 25.96360 83.80557 38669 ft 554 kts 116°
2026-04-21 14:21 25.94032 83.88728 38667 ft 554 kts 116°
2026-04-21 14:22 25.91702 83.96901 38664 ft 556 kts 116°
2026-04-21 14:22 25.89357 84.05098 38668 ft 557 kts 116°
2026-04-21 14:23 25.87026 84.13236 38667 ft 556 kts 116°
2026-04-21 14:23 25.84675 84.21416 38664 ft 556 kts 116°
2026-04-21 14:24 25.82318 84.29604 38657 ft 557 kts 117°
2026-04-21 14:24 25.79939 84.37832 38667 ft 562 kts 117°
2026-04-21 14:25 25.77560 84.46077 38674 ft 560 kts 117°
2026-04-21 14:25 25.75169 84.54306 38667 ft 559 kts 117°
2026-04-21 14:26 25.72787 84.62510 38663 ft 558 kts 117°
2026-04-21 14:26 25.70397 84.70700 38664 ft 560 kts 117°
2026-04-21 14:27 25.67989 84.78948 38672 ft 563 kts 117°
2026-04-21 14:27 25.65575 84.87203 38678 ft 563 kts 117°
2026-04-21 14:28 25.63149 84.95463 38675 ft 563 kts 117°
2026-04-21 14:28 25.60722 85.03709 38676 ft 561 kts 118°
2026-04-21 14:28 25.59205 85.07619 38658 ft 545 kts 128°
2026-04-21 14:29 25.57220 85.11127 38661 ft 531 kts 138°
2026-04-21 14:29 25.54859 85.14199 38651 ft 515 kts 146°
2026-04-21 14:29 25.52370 85.17033 38666 ft 515 kts 146°
2026-04-21 14:30 25.47402 85.22725 38674 ft 518 kts 146°
2026-04-21 14:30 25.42419 85.28452 38679 ft 515 kts 146°
2026-04-21 14:31 25.37443 85.34133 38687 ft 514 kts 146°
2026-04-21 14:31 25.32471 85.39824 38686 ft 515 kts 146°
2026-04-21 14:32 25.27472 85.45526 38686 ft 517 kts 146°
2026-04-21 14:32 25.22461 85.51244 38687 ft 518 kts 146°
2026-04-21 14:33 25.17449 85.56953 38696 ft 516 kts 146°
2026-04-21 14:33 25.12448 85.62639 38686 ft 515 kts 146°
2026-04-21 14:34 25.07468 85.68297 38685 ft 514 kts 146°
2026-04-21 14:34 25.02517 85.74015 38687 ft 517 kts 145°
2026-04-21 14:35 24.97568 85.79786 38688 ft 518 kts 146°
2026-04-21 14:35 24.92581 85.85529 38701 ft 518 kts 144°
2026-04-21 14:36 24.87655 85.91247 38708 ft 517 kts 145°
2026-04-21 14:36 24.82694 85.96960 38717 ft 516 kts 145°
2026-04-21 14:37 24.77731 86.02691 38715 ft 517 kts 145°
2026-04-21 14:37 24.73565 86.07487 38720 ft 517 kts 145°
2026-04-21 14:38 24.68581 86.13221 38737 ft 518 kts 145°
2026-04-21 14:38 24.63601 86.18946 38722 ft 517 kts 144°
2026-04-21 14:39 24.58665 86.24611 38736 ft 515 kts 144°
2026-04-21 14:39 24.53710 86.30290 38741 ft 514 kts 144°
2026-04-21 14:40 24.48762 86.35956 38727 ft 514 kts 144°
2026-04-21 14:40 24.43806 86.41623 38735 ft 515 kts 144°
2026-04-21 14:41 24.38844 86.47293 38730 ft 515 kts 144°
2026-04-21 14:41 24.33876 86.52959 38710 ft 515 kts 144°
2026-04-21 14:42 24.28914 86.58614 38730 ft 513 kts 144°
2026-04-21 14:42 24.23970 86.64245 38730 ft 512 kts 144°
2026-04-21 14:43 24.19072 86.69898 38723 ft 511 kts 143°
2026-04-21 14:43 24.13862 86.74994 38729 ft 492 kts 157°
2026-04-21 14:43 24.10924 86.76816 38731 ft 481 kts 165°
2026-04-21 14:44 24.07883 86.78122 38727 ft 470 kts 173°
2026-04-21 14:44 24.01615 86.80042 38727 ft 468 kts 174°
2026-04-21 14:45 23.95343 86.81994 38724 ft 468 kts 174°
2026-04-21 14:45 23.89069 86.83919 38728 ft 468 kts 174°
2026-04-21 14:45 23.85970 86.85134 38707 ft 479 kts 166°
2026-04-21 14:46 23.82987 86.86861 38699 ft 491 kts 158°
2026-04-21 14:46 23.80198 86.89089 38701 ft 504 kts 149°
2026-04-21 14:46 23.77682 86.91803 38706 ft 516 kts 140°
2026-04-21 14:47 23.73547 86.98330 38704 ft 525 kts 131°
2026-04-21 14:47 23.69598 87.05005 38698 ft 521 kts 132°
2026-04-21 14:48 23.65686 87.11585 38686 ft 520 kts 131°
2026-04-21 14:48 23.61756 87.18212 38686 ft 520 kts 132°
2026-04-21 14:49 23.57822 87.24817 38658 ft 520 kts 132°
2026-04-21 14:49 23.53885 87.31435 38660 ft 520 kts 132°
2026-04-21 14:50 23.49933 87.38053 38671 ft 524 kts 131°
2026-04-21 14:50 23.45955 87.44724 38679 ft 525 kts 131°
2026-04-21 14:51 23.41968 87.51390 38690 ft 524 kts 131°
2026-04-21 14:51 23.37954 87.57981 38675 ft 515 kts 136°
2026-04-21 14:51 23.35627 87.60796 38678 ft 502 kts 146°
2026-04-21 14:52 23.32961 87.63176 38674 ft 490 kts 154°
2026-04-21 14:52 23.27343 87.67410 38696 ft 493 kts 154°
2026-04-21 14:53 23.21713 87.71701 38679 ft 493 kts 154°
2026-04-21 14:53 23.16134 87.75923 38681 ft 486 kts 155°
2026-04-21 14:54 23.10573 87.80127 38685 ft 488 kts 154°
2026-04-21 14:54 23.04987 87.84356 38687 ft 489 kts 154°
2026-04-21 14:55 22.99396 87.88576 38693 ft 490 kts 154°
2026-04-21 14:55 22.94237 87.93475 38680 ft 508 kts 138°
2026-04-21 14:56 22.90532 88.00139 38681 ft 528 kts 119°
2026-04-21 14:56 22.89430 88.03972 38682 ft 537 kts 108°
2026-04-21 14:56 22.88878 88.07994 38707 ft 542 kts 101°
2026-04-21 14:57 22.88849 88.16168 38678 ft 532 kts 91°
2026-04-21 14:57 22.89051 88.20104 38679 ft 516 kts 91°
2026-04-21 14:57 22.89195 88.23936 38675 ft 501 kts 93°
2026-04-21 14:57 22.89294 88.27656 38679 ft 487 kts 93°
2026-04-21 14:58 22.89432 88.31276 38673 ft 475 kts 91°
2026-04-21 14:58 22.89677 88.34827 38305 ft 473 kts 90°
2026-04-21 14:58 22.89970 88.38434 37334 ft 485 kts 89°
2026-04-21 14:58 22.90283 88.42096 36649 ft 489 kts 89°
2026-04-21 14:59 22.90599 88.45779 36073 ft 490 kts 88°
2026-04-21 14:59 22.90913 88.49474 35235 ft 497 kts 89°
2026-04-21 14:59 22.91229 88.53266 34125 ft 512 kts 89°
2026-04-21 14:59 22.91548 88.57166 32857 ft 525 kts 88°
2026-04-21 15:00 22.91854 88.61113 31498 ft 537 kts 88°
2026-04-21 15:00 22.92132 88.65227 30301 ft 543 kts 88°
2026-04-21 15:00 22.92358 88.69328 29215 ft 543 kts 88°
2026-04-21 15:00 22.92545 88.73343 28308 ft 536 kts 88°
2026-04-21 15:01 22.93081 88.77317 27413 ft 530 kts 76°
2026-04-21 15:01 22.94270 88.81116 26611 ft 521 kts 65°
2026-04-21 15:01 22.95995 88.84476 25852 ft 512 kts 54°
2026-04-21 15:01 22.98235 88.87420 25084 ft 501 kts 43°
2026-04-21 15:02 23.00884 88.89813 24342 ft 490 kts 31°
2026-04-21 15:02 23.03831 88.91574 23601 ft 479 kts 19°
2026-04-21 15:02 23.06940 88.92751 22816 ft 469 kts 12°
2026-04-21 15:02 23.10073 88.93628 22029 ft 460 kts
2026-04-21 15:03 23.13173 88.94369 21291 ft 452 kts
2026-04-21 15:03 23.16229 88.95046 20571 ft 445 kts
2026-04-21 15:03 23.19235 88.95688 19847 ft 437 kts
2026-04-21 15:03 23.22201 88.96310 19130 ft 430 kts
2026-04-21 15:04 23.25117 88.96915 18454 ft 423 kts
2026-04-21 15:04 23.27987 88.97505 17743 ft 417 kts
2026-04-21 15:04 23.30811 88.98081 16959 ft 409 kts
2026-04-21 15:04 23.33608 88.98287 16061 ft 399 kts 352°
2026-04-21 15:05 23.36270 88.97670 15292 ft 386 kts 337°
2026-04-21 15:05 23.40298 88.94291 14338 ft 352 kts 303°
2026-04-21 15:05 23.41272 88.91914 13868 ft 341 kts 285°
2026-04-21 15:06 23.41622 88.89391 13381 ft 333 kts 276°
2026-04-21 15:06 23.41738 88.86903 12869 ft 325 kts 273°
2026-04-21 15:06 23.41783 88.84472 12373 ft 318 kts 272°
2026-04-21 15:06 23.41809 88.82091 11874 ft 311 kts 272°
2026-04-21 15:07 23.41829 88.79762 11378 ft 305 kts 271°
2026-04-21 15:07 23.41848 88.77476 10886 ft 300 kts 271°
2026-04-21 15:07 23.41869 88.75228 10407 ft 295 kts 271°
2026-04-21 15:07 23.41892 88.73009 9938 ft 291 kts 271°
2026-04-21 15:08 23.41845 88.70847 9553 ft 282 kts 263°
2026-04-21 15:08 23.41018 88.68945 9032 ft 286 kts 232°
2026-04-21 15:08 23.39457 88.67621 8603 ft 285 kts 214°
2026-04-21 15:08 23.37723 88.66583 8243 ft 283 kts 211°
2026-04-21 15:09 23.35973 88.65612 7892 ft 282 kts 210°
2026-04-21 15:09 23.34220 88.64650 7537 ft 281 kts 210°
2026-04-21 15:09 23.32476 88.63696 7195 ft 280 kts 210°
2026-04-21 15:09 23.30741 88.62743 6853 ft 278 kts 210°
2026-04-21 15:10 23.29037 88.61803 6608 ft 269 kts 210°
2026-04-21 15:10 23.27401 88.60897 6363 ft 259 kts 210°
2026-04-21 15:10 23.25820 88.60018 6110 ft 251 kts 210°
2026-04-21 15:10 23.24289 88.59167 5843 ft 243 kts 210°
2026-04-21 15:11 23.22799 88.58338 5580 ft 238 kts 210°
2026-04-21 15:11 23.21330 88.57520 5322 ft 237 kts 210°
2026-04-21 15:11 23.19863 88.56705 5072 ft 236 kts 210°
2026-04-21 15:11 23.18409 88.55897 4836 ft 234 kts 210°
2026-04-21 15:12 23.16981 88.55110 4586 ft 230 kts 210°
2026-04-21 15:12 23.15587 88.54343 4402 ft 217 kts 209°
2026-04-21 15:12 23.14257 88.53604 4181 ft 212 kts 209°
2026-04-21 15:12 23.12924 88.52965 4037 ft 210 kts 201°
2026-04-21 15:13 23.11509 88.52586 3921 ft 210 kts 194°
2026-04-21 15:13 23.10065 88.52322 3816 ft 211 kts 192°
2026-04-21 15:13 23.08621 88.52075 3700 ft 208 kts 191°
2026-04-21 15:13 23.07196 88.51812 3581 ft 207 kts 191°
2026-04-21 15:14 23.05779 88.51540 3475 ft 207 kts 192°
2026-04-21 15:14 23.04358 88.51269 3344 ft 207 kts 191°
2026-04-21 15:14 23.02939 88.51004 3241 ft 207 kts 192°
2026-04-21 15:14 23.01525 88.50737 3137 ft 205 kts 191°
2026-04-21 15:15 23.00190 88.50486 3071 ft 185 kts 191°
2026-04-21 15:15 22.98991 88.50261 3065 ft 165 kts 192°
2026-04-21 15:15 22.97917 88.50059 3055 ft 150 kts 192°
2026-04-21 15:15 22.96915 88.49872 3095 ft 144 kts 192°
2026-04-21 15:16 22.95902 88.49679 3077 ft 149 kts 193°
2026-04-21 15:16 22.94891 88.49487 3074 ft 147 kts 193°
2026-04-21 15:16 22.93891 88.49298 3082 ft 148 kts 192°
2026-04-21 15:16 22.92885 88.49109 3078 ft 146 kts 192°
2026-04-21 15:17 22.91878 88.48922 3090 ft 148 kts 192°
2026-04-21 15:17 22.90804 88.48715 3121 ft 172 kts 192°
2026-04-21 15:17 22.89604 88.48492 3106 ft 173 kts 192°
2026-04-21 15:17 22.88424 88.48270 3107 ft 172 kts 192°
2026-04-21 15:18 22.87252 88.48051 3104 ft 171 kts 192°
2026-04-21 15:18 22.86077 88.47826 3104 ft 172 kts 192°
2026-04-21 15:18 22.84984 88.47305 3096 ft 169 kts 210°
2026-04-21 15:18 22.83853 88.46967 3076 ft 167 kts 189°
2026-04-21 15:19 22.82675 88.46810 2911 ft 175 kts 189°
2026-04-21 15:19 22.81494 88.46662 2672 ft 168 kts 188°
2026-04-21 15:19 22.80336 88.46522 2466 ft 170 kts 187°
2026-04-21 15:19 22.79154 88.46383 2252 ft 168 kts 186°
2026-04-21 15:20 22.78008 88.46249 2038 ft 162 kts 186°
2026-04-21 15:20 22.76881 88.46122 1830 ft 165 kts 187°
2026-04-21 15:20 22.75758 88.45993 1624 ft 163 kts 187°
2026-04-21 15:20 22.74650 88.45862 1412 ft 158 kts 187°
2026-04-21 15:21 22.73575 88.45733 1211 ft 151 kts 187°
2026-04-21 15:21 22.72566 88.45613 1021 ft 142 kts 187°
2026-04-21 15:21 22.71597 88.45499 860 ft 140 kts 187°
2026-04-21 15:21 22.70645 88.45385 701 ft 131 kts 186°
2026-04-21 15:22 22.69731 88.45285 556 ft 133 kts 185°
2026-04-21 15:22 22.68810 88.45169 414 ft 136 kts 185°
2026-04-21 15:22 22.67845 88.45059 238 ft 142 kts 185°
2026-04-21 15:22 22.66886 88.44948 46 ft 134 kts 185°
2026-04-21 15:23 22.66050 88.44851 35 ft 101 kts 186°
2026-04-21 15:23 22.65526 88.44789 35 ft 57 kts 186°
2026-04-21 15:23 22.65232 88.44755 33 ft 33 kts 186°
2026-04-21 15:23 22.65054 88.44728 30 ft 17 kts 191°
2026-04-21 15:24 22.64988 88.44709 30 ft 14 kts 199°
2026-04-21 15:24 22.64897 88.44658 30 ft 15 kts 212°
2026-04-21 15:24 22.64804 88.44591 31 ft 17 kts 214°
2026-04-21 15:24 22.64705 88.44519 32 ft 18 kts 214°
2026-04-21 15:25 22.64651 88.44450 33 ft 8 kts 272°
2026-04-21 15:25 22.64656 88.44387 33 ft 7 kts 273°
2026-04-21 15:25 22.64675 88.44366 34 ft 7 kts 340°
2026-04-21 15:25 22.64712 88.44290 34 ft 15 kts 275°
2026-04-21 15:26 22.64697 88.44210 34 ft 8 kts 204°
2026-04-21 15:26 22.64628 88.44200 34 ft 11 kts 187°
2026-04-21 15:26 22.64544 88.44189 34 ft 13 kts 187°
2026-04-21 15:26 22.64494 88.44180 34 ft 4 kts 205°
2026-04-21 15:27 22.64480 88.44154 34 ft 5 kts 258°
2026-04-21 15:27 22.64479 88.44110 34 ft 2 kts 275°
2026-04-21 15:27 22.64480 88.44100 34 ft 0 kts 275°